time_stamp(utc),avg(mph),gust(mph),direction(deg),12m_air_temp(f),sonic_u(cm/s),sonic_v(cm/s),sonic_w(cm/s),pressure,2m_air_temp(f),pyranometer(W/m^2)
"2022-02-20 00:04:57+00",37.3,42.3,,,-1385,987,115,1019.16,31.5,0
"2022-02-20 00:09:57+00",36.7,42.7,,,-1292,1030,129,1019.37,31.1,0
"2022-02-20 00:14:57+00",36.8,41.8,,31.2,-1149,1170,129,1019.5,30.7,0
"2022-02-20 00:19:57+00",42.6,46.6,,31,-1489,1227,109,1019.62,30.5,0
"2022-02-20 00:24:57+00",37.0,42.0,,30.7,-1247,1094,121,1019.94,30.3,0
"2022-02-20 00:29:57+00",32.1,39.1,,30.5,-1183,814,112,1020.24,30.1,0
"2022-02-20 00:34:57+00",36.6,41.6,,,-1228,1103,104,1020.33,30,0
"2022-02-20 00:39:57+00",39.5,45.5,,30.3,-1338,1155,97,1020.29,29.8,0
"2022-02-20 00:44:57+00",34.9,36.9,,30.2,-1187,1001,97,1020.5,29.7,0
"2022-02-20 00:49:57+00",38.9,42.9,,30.2,-1430,998,112,1020.54,29.7,0
"2022-02-20 00:54:57+00",35.8,41.8,,30.1,-1290,978,102,1020.62,29.5,0
"2022-02-20 01:04:57+00",37.1,43.1,,29.9,-1339,1044,117,1020.94,29.4,0
"2022-02-20 01:09:57+00",32.3,37.3,,29.6,-1140,873,93,1021.26,29.2,0
"2022-02-20 01:14:57+00",37.6,42.6,,29.5,-1301,1078,119,1021.41,29.1,0
"2022-02-20 01:19:57+00",34.4,39.4,,29.5,-1191,995,108,1021.44,29,0
"2022-02-20 01:24:57+00",36.2,40.2,,,-1230,1076,119,1021.75,28.9,0
"2022-02-20 01:29:57+00",35.6,41.6,,29.4,-1357,894,128,1021.91,29,0
"2022-02-20 01:34:57+00",38.6,45.6,,29.4,-1342,1124,118,1022.05,29,0
"2022-02-20 01:39:57+00",37.1,42.1,,29.4,-1382,966,128,1022.18,29,0
"2022-02-20 01:44:57+00",32.7,37.7,,,-1137,932,81,1022.38,28.9,0
"2022-02-20 01:49:57+00",29.9,34.9,,,-1044,816,86,1022.65,28.8,0
"2022-02-20 01:54:57+00",36.8,40.8,,29.1,-1250,1083,107,1022.71,28.8,0
"2022-02-20 02:04:57+00",24.3,31.3,,28.8,-940,639,91,1023.09,28.5,0
"2022-02-20 02:09:57+00",27.2,31.2,,,-881,818,86,1023.2,28.4,0
"2022-02-20 02:14:57+00",27.5,31.5,,28.5,-828,917,91,1023.18,28.2,0
"2022-02-20 02:19:57+00",24.0,30.0,,28.6,-811,701,98,1023.4,28.2,0
"2022-02-20 02:24:57+00",31.2,35.2,,28.4,-1139,825,111,1023.49,28,0
"2022-02-20 02:29:57+00",28.8,32.8,,28.2,-971,878,83,1023.45,27.8,0
"2022-02-20 02:34:57+00",33.9,42.9,,28.2,-1229,956,131,1023.56,27.9,0
"2022-02-20 02:39:57+00",34.6,37.6,,28.1,-1138,1057,83,1023.62,27.9,0
"2022-02-20 02:44:57+00",30.8,34.8,,27.7,-841,1117,92,1023.92,27.5,0
"2022-02-20 02:49:57+00",28.7,35.7,,27.8,-851,961,87,1024.1,27.4,0
"2022-02-20 02:54:57+00",28.6,33.6,,27.4,-789,1011,79,1024.24,27.2,0
"2022-02-20 03:04:57+00",23.0,26.0,,,-669,780,43,1024.57,27,0
"2022-02-20 03:09:57+00",22.7,25.7,,,-680,750,66,1024.83,26.8,0
"2022-02-20 03:14:57+00",19.9,22.9,,27.3,-690,571,72,1024.81,26.8,0
"2022-02-20 03:19:57+00",24.9,28.9,,27.1,-762,844,71,1024.84,26.7,0
"2022-02-20 03:24:57+00",27.1,29.1,,,-944,763,81,1024.84,27,0
"2022-02-20 03:29:57+00",20.8,27.8,,27.2,-720,621,72,1024.91,26.9,0
"2022-02-20 03:34:57+00",26.0,29.0,,,-722,912,63,1025.03,26.4,0
"2022-02-20 03:39:57+00",27.4,32.4,,26.9,-860,853,75,1025.05,26.6,0
"2022-02-20 03:44:57+00",26.6,31.6,,26.8,-751,933,70,1025.03,26.6,0
"2022-02-20 03:49:57+00",31.2,35.2,,26.5,-862,1103,70,1025.22,26.2,0
"2022-02-20 03:54:57+00",29.8,36.8,,26.6,-968,911,95,1025.31,26.3,0
"2022-02-20 04:04:57+00",25.1,28.1,,,-735,835,72,1025.52,26.3,0
"2022-02-20 04:09:57+00",23.7,26.7,,26.2,-679,819,61,1025.59,26,0
"2022-02-20 04:14:57+00",29.4,32.4,,26,-999,865,64,1025.68,25.8,0
"2022-02-20 04:19:57+00",26.0,30.0,,,-813,834,82,1025.85,25.7,0
"2022-02-20 04:24:57+00",24.1,27.1,,,-735,783,53,1026.06,25.5,0
"2022-02-20 04:29:57+00",26.1,31.1,,25.8,-886,758,94,1026.23,25.7,0
"2022-02-20 04:34:57+00",27.5,32.5,,25.8,-999,726,90,1026.14,25.6,0
"2022-02-20 04:39:57+00",26.0,30.0,,,-925,727,88,1026.35,25.7,0
"2022-02-20 04:44:57+00",22.8,27.8,,25.4,-785,689,78,1026.3,25.3,0
"2022-02-20 04:49:57+00",21.2,23.2,,25.4,-635,705,53,1026.42,25.2,0
"2022-02-20 04:54:57+00",20.4,23.4,,25.3,-626,655,78,1026.45,25,0
"2022-02-20 05:04:57+00",20.1,24.1,,24.9,-453,748,39,1026.79,24.7,0
"2022-02-20 05:09:57+00",22.8,24.8,,,-666,772,59,1026.73,24.5,0
"2022-02-20 05:14:57+00",20.9,23.9,,24.8,-611,699,67,1026.77,24.5,0
"2022-02-20 05:19:57+00",17.4,20.4,,,-458,633,44,1026.8,24.4,0
"2022-02-20 05:24:57+00",24.4,27.4,,24.9,-866,683,69,1026.81,24.5,0
"2022-02-20 05:29:57+00",17.8,20.8,,24.6,-541,575,38,1026.99,24.3,0
"2022-02-20 05:34:57+00",21.4,23.4,,24.7,-644,700,43,1027.09,24.4,0
"2022-02-20 05:39:57+00",19.4,22.4,,24.8,-631,601,61,1027.11,24.5,0
"2022-02-20 05:44:57+00",21.1,23.1,,,-706,621,92,1027.01,24.4,0
"2022-02-20 05:49:57+00",17.5,19.5,,24.6,-643,460,39,1026.97,24.3,0
"2022-02-20 05:54:57+00",17.8,19.8,,,-580,537,46,1026.98,24.3,0
"2022-02-20 06:04:57+00",15.2,17.2,,,-540,406,45,1027.31,24.2,0
"2022-02-20 06:09:57+00",16.9,19.9,,,-661,385,49,1027.37,24,0
"2022-02-20 06:14:57+00",19.5,21.5,,24.3,-745,497,44,1027.37,24,0
"2022-02-20 06:19:57+00",18.8,21.8,,24.3,-764,410,45,1027.5,24,0
"2022-02-20 06:24:57+00",17.3,22.3,,24.3,-670,397,44,1027.76,23.9,0
"2022-02-20 06:29:57+00",20.4,21.4,,24.2,-768,518,48,1027.82,23.9,0
"2022-02-20 06:34:57+00",19.1,22.1,,24.1,-700,499,43,1027.61,23.8,0
"2022-02-20 06:39:57+00",19.6,23.6,,24.1,-673,569,77,1027.53,23.8,0
"2022-02-20 06:44:57+00",16.6,20.6,,24,-667,354,68,1027.86,23.7,0
"2022-02-20 06:49:57+00",19.5,22.5,,24,-656,577,61,1027.98,23.6,0
"2022-02-20 06:54:57+00",16.4,18.4,,,-589,451,42,1027.8,23.5,0
"2022-02-20 07:04:57+00",15.5,19.5,,23.9,-651,325,25,1028.12,23.5,0
"2022-02-20 07:09:57+00",13.8,16.8,,23.8,-536,310,64,1028.13,23.4,0
"2022-02-20 07:14:57+00",17.0,19.0,,23.6,-649,421,38,1028.06,23.3,0
"2022-02-20 07:19:57+00",14.9,16.9,,23.6,-570,352,53,1028.28,23.2,0
"2022-02-20 07:24:57+00",17.6,19.6,,23.4,-611,496,46,1028.09,23.1,0
"2022-02-20 07:29:57+00",16.9,18.9,,23.5,-620,445,44,1028.3,23.1,0
"2022-02-20 07:34:57+00",16.2,18.2,,,-664,340,27,1028.56,23,0
"2022-02-20 07:39:57+00",16.4,19.4,,23.5,-644,363,63,1028.61,23,0
"2022-02-20 07:44:57+00",17.2,19.2,,23.5,-681,401,43,1028.71,23,0
"2022-02-20 07:49:57+00",18.8,21.8,,23.5,-720,455,36,1028.65,23.1,0
"2022-02-20 07:54:57+00",17.4,20.4,,23.5,-651,456,44,1028.87,23.1,0
"2022-02-20 07:59:57+00",17.9,20.9,,,-782,263,64,1029.25,23.1,0
"2022-02-20 08:04:57+00",17.1,20.1,,23.6,-651,434,57,1029.07,23.1,0
"2022-02-20 08:09:57+00",17.6,19.6,,23.6,-702,379,67,1029.11,23.1,0
"2022-02-20 08:14:57+00",17.9,20.9,,23.6,-742,321,66,1029.11,23.1,0
"2022-02-20 08:19:57+00",18.6,20.6,,23.7,-739,418,40,1028.98,23.2,0
"2022-02-20 08:24:57+00",17.8,19.8,,23.5,-726,331,60,1029.1,23.1,0
"2022-02-20 08:29:57+00",17.2,21.2,,23.5,-688,349,78,1028.88,23.1,0
"2022-02-20 08:34:57+00",20.7,22.7,,23.5,-743,562,42,1028.93,23.1,0
"2022-02-20 08:39:57+00",18.7,20.7,,23.5,-723,419,66,1029.09,23,0
"2022-02-20 08:44:57+00",17.8,19.8,,23.5,-705,402,53,1029.05,23,0
"2022-02-20 08:49:57+00",18.7,20.7,,23.4,-743,406,37,1029.14,23,0
"2022-02-20 08:54:57+00",18.5,20.5,,,-762,351,58,1029.11,23,0
"2022-02-20 09:04:57+00",17.1,19.1,,23.4,-694,357,46,1028.82,22.9,0
"2022-02-20 09:09:57+00",16.9,19.9,,23.3,-647,409,30,1029.05,22.9,0
"2022-02-20 09:14:57+00",17.5,19.5,,23.3,-662,442,61,1028.84,22.9,0
"2022-02-20 09:19:57+00",21.0,23.0,,23.1,-777,547,53,1028.76,22.8,0
"2022-02-20 09:24:57+00",21.2,23.2,,23,-760,574,61,1028.65,22.7,0
"2022-02-20 09:29:57+00",19.3,21.3,,22.9,-661,561,58,1028.73,22.6,0
"2022-02-20 09:34:57+00",18.0,20.0,,22.8,-642,500,46,1028.9,22.5,0
"2022-02-20 09:39:57+00",16.5,18.5,,22.6,-609,432,46,1029.13,22.3,0
"2022-02-20 09:44:57+00",16.4,18.4,,22.6,-510,521,43,1028.87,22.2,0
"2022-02-20 09:49:57+00",14.4,15.4,,22.3,-357,522,29,1028.97,22,0
"2022-02-20 09:54:57+00",12.6,14.6,,22.2,-374,423,31,1028.98,21.8,0
"2022-02-20 10:04:57+00",9.0,12.0,,21.7,-225,311,14,1029.53,21.2,0
"2022-02-20 10:09:57+00",8.9,10.9,,21.6,-275,282,21,1029.4,21.1,0
"2022-02-20 10:14:57+00",12.4,14.4,,22,-386,391,34,1029.22,21.4,0
"2022-02-20 10:19:57+00",11.4,12.4,,22.1,-365,340,13,1029.47,21.4,0
"2022-02-20 10:24:57+00",6.8,7.8,,22.2,-268,147,26,1029.57,21.5,0
"2022-02-20 10:29:57+00",9.6,10.6,,22.2,-289,317,25,1029.37,21.5,0
"2022-02-20 10:34:57+00",11.3,14.3,,22.1,-434,266,32,1029.45,21.5,0
"2022-02-20 10:39:57+00",9.2,10.2,,22,-358,215,30,1029.72,21.4,0
"2022-02-20 10:44:57+00",7.7,8.7,,22,-283,200,22,1029.73,21.4,0
"2022-02-20 10:49:57+00",11.4,13.4,,21.9,-399,321,70,1029.49,21.3,0
"2022-02-20 10:54:57+00",10.3,12.3,,,-334,314,44,1029.4,21.4,0
"2022-02-20 10:59:57+00",7.8,8.8,,,-311,146,13,1029.93,21.3,0
"2022-02-20 11:04:57+00",7.7,8.7,,,-242,242,24,1029.67,21.2,0
"2022-02-20 11:09:57+00",9.2,11.2,,21.8,-301,279,25,1029.53,21.2,0
"2022-02-20 11:14:57+00",9.1,11.1,,21.9,-256,319,27,1029.73,21.2,0
"2022-02-20 11:19:57+00",8.4,9.4,,,-133,333,18,1029.52,20.9,0
"2022-02-20 11:24:57+00",6.5,7.5,,21.4,-153,239,10,1029.8,20.5,0
"2022-02-20 11:29:57+00",11.4,13.4,,21.4,-243,438,21,1029.58,20.2,0
"2022-02-20 11:34:57+00",6.8,8.8,,,-197,230,26,1029.93,20.2,0
"2022-02-20 11:39:57+00",7.5,8.5,,,-188,269,9,1030.14,20.4,0
"2022-02-20 11:44:57+00",11.2,12.2,,21.7,-350,355,28,1030.28,20.6,0
"2022-02-20 11:49:57+00",11.0,12.0,,22,-382,309,28,1030.37,21.1,0
"2022-02-20 11:54:57+00",8.2,10.2,,,-314,198,19,1030.73,21.3,0
"2022-02-20 12:04:57+00",10.8,11.8,,,-380,307,30,1030.26,21.7,0
"2022-02-20 12:09:57+00",9.3,10.3,,22.4,-344,254,23,1030.58,21.8,0
"2022-02-20 12:14:57+00",8.3,10.3,,22.5,-314,202,39,1030.57,22,0
"2022-02-20 12:19:57+00",13.6,14.6,,,-497,358,29,1030.57,22.3,3.5
"2022-02-20 12:24:57+00",12.2,14.2,,,-503,212,28,1030.86,22.6,9.2
"2022-02-20 12:29:57+00",13.4,15.4,,22.7,-518,298,25,1031.2,23,17.8
"2022-02-20 12:34:57+00",12.8,14.8,,22.8,-472,337,20,1031.31,23.4,28.7
"2022-02-20 12:39:57+00",10.8,11.8,,22.9,-410,254,37,1031.41,23.6,38.2
"2022-02-20 12:44:57+00",12.2,13.2,,22.9,-466,283,30,1031.6,23.8,47.2
"2022-02-20 12:49:57+00",11.1,12.1,,,-417,281,33,1031.36,23.9,58.3
"2022-02-20 12:54:57+00",9.7,12.7,,23.1,-421,118,15,1031.5,24.6,67.1
"2022-02-20 12:59:57+00",8.0,10.0,,,-340,104,12,1031.62,25,76.2
"2022-02-20 13:04:57+00",10.9,12.9,,23,-477,134,26,1031.73,25.4,87.9
"2022-02-20 13:09:57+00",11.0,12.0,,23.2,-488,50,40,1032.08,25.9,96.8
"2022-02-20 13:14:57+00",12.1,13.1,,23.1,-533,94,35,1032.04,26.2,104.8
"2022-02-20 13:19:57+00",12.2,14.2,,,-535,48,8,1032.25,26.2,115.5
"2022-02-20 13:24:57+00",13.6,15.6,,23.3,-607,187,43,1032.33,26.5,124.6
"2022-02-20 13:29:57+00",13.0,14.0,,23.5,-590,41,36,1032.53,26.3,135.3
"2022-02-20 13:34:57+00",14.2,16.2,,23.4,-637,105,21,1032.65,26.7,143.7
"2022-02-20 13:39:57+00",14.4,15.4,,23.6,-539,363,45,1032.45,26.1,152
"2022-02-20 13:44:57+00",13.5,15.5,,23.8,-565,206,19,1032.64,26.4,162
"2022-02-20 13:49:57+00",12.0,13.0,,,-520,152,37,1032.67,26.6,169.3
"2022-02-20 13:54:57+00",12.0,14.0,,23.9,-473,296,51,1032.52,26.1,179.6
"2022-02-20 14:04:57+00",10.9,12.9,,24.1,-462,180,39,1032.67,26.3,197.3
"2022-02-20 14:09:57+00",12.9,14.9,,,-497,338,57,1032.6,26.5,194
"2022-02-20 14:14:57+00",12.8,13.8,,,-570,73,25,1032.66,26.6,196.6
"2022-02-20 14:19:57+00",10.3,12.3,,24.2,-406,217,36,1032.72,26.7,215.3
"2022-02-20 14:24:57+00",12.7,15.7,,24.2,-507,263,13,1032.71,26.9,226.6
"2022-02-20 14:29:57+00",10.7,11.7,,,-366,276,7,1032.52,27,226.8
"2022-02-20 14:34:57+00",7.8,9.8,,25,-312,100,78,1032.59,27.8,253.5
"2022-02-20 14:39:57+00",6.0,7.0,,24.9,-217,139,10,1032.47,28,263.8
"2022-02-20 14:44:57+00",5.1,7.1,,24.9,-194,111,15,1032.29,27.7,219.5
"2022-02-20 14:49:57+00",6.0,7.0,,,-263,40,16,1032.19,28,200.2
"2022-02-20 14:54:57+00",8.2,10.2,,,-318,163,66,1032.13,28.1,246.1
"2022-02-20 14:59:57+00",4.4,5.4,,25.2,-105,134,-39,1031.83,28,189.9
"2022-02-20 15:04:57+00",4.6,5.6,,,-184,-5,10,1031.96,28.9,228.1
"2022-02-20 15:09:57+00",3.6,3.6,,25.5,-125,71,5,1031.74,29.8,180.2
"2022-02-20 15:14:57+00",4.7,5.7,,25.6,-194,6,-8,1032,29.6,253.9
"2022-02-20 15:19:57+00",2.5,3.5,,25.8,-81,-42,-35,1031.96,30.4,259.6
"2022-02-20 15:24:57+00",1.6,2.6,,25.9,-49,14,-25,1031.99,30.4,254.1
"2022-02-20 15:29:57+00",1.6,2.6,,26.8,35,-50,-32,1031.97,30.1,253.4
"2022-02-20 15:34:57+00",3.6,5.6,,27.1,127,-45,37,1032.05,29.5,255.4
"2022-02-20 15:39:57+00",2.5,4.5,,26.9,-9,72,-1,1032.02,30,305.3
"2022-02-20 15:44:57+00",5.4,7.4,,26.7,-217,-102,16,1032.06,31,320.1
"2022-02-20 15:49:57+00",3.1,4.1,,26.6,-129,-2,1,1032.04,31,316.2
"2022-02-20 15:54:57+00",2.2,3.2,,,-69,-28,-13,1032.02,31.8,331.4
"2022-02-20 16:04:57+00",7.6,9.6,,,-172,-298,-5,1032.17,31.6,333.4
"2022-02-20 16:09:57+00",6.5,7.5,,26.4,-170,-234,-16,1032.1,30.1,329.8
"2022-02-20 16:14:57+00",7.7,9.7,,26.9,-321,-87,57,1032.14,29.8,334.3
"2022-02-20 16:19:57+00",7.0,8.0,,27,-158,-251,0,1032.04,30.2,342.3
"2022-02-20 16:24:57+00",4.3,5.3,,27.9,-1,-160,38,1032.24,30.7,342.6
"2022-02-20 16:29:57+00",2.8,3.8,,27.9,-70,50,28,1032.19,31.3,352.8
"2022-02-20 16:34:57+00",2.2,2.2,,28,-81,-11,-4,1032.06,32,356.3
"2022-02-20 16:39:57+00",6.7,9.7,,28,-270,-50,43,1032.12,32.4,358
"2022-02-20 16:44:57+00",8.2,10.2,,27.8,-249,-289,8,1032.11,31.8,351
"2022-02-20 16:49:57+00",8.0,9.0,,27.7,-234,-256,-4,1032.23,31.6,353.6
"2022-02-20 16:54:57+00",6.1,7.1,,28,-137,-223,2,1032.27,31.4,362.1
"2022-02-20 17:04:57+00",8.7,10.7,,28.2,-194,-345,-8,1032.41,31.7,371.4
"2022-02-20 17:09:57+00",8.0,9.0,,28.3,-211,-277,4,1032.31,31.6,366.1
"2022-02-20 17:14:57+00",5.0,7.0,,28.9,-5,-186,58,1032.01,31.7,362.4
"2022-02-20 17:19:57+00",5.7,10.7,,29.1,-50,-207,20,1032.15,31.1,359.6
"2022-02-20 17:24:57+00",4.0,6.0,,29.2,-17,-155,40,1031.96,31.1,355.9
"2022-02-20 17:29:57+00",11.3,12.3,,,225,-438,-4,1031.88,31.4,355
"2022-02-20 17:34:57+00",11.1,14.1,,29,172,-435,15,1031.81,31.3,355.3
"2022-02-20 17:39:57+00",10.8,12.8,,28.6,132,-429,-7,1031.82,30.7,348.1
"2022-02-20 17:44:57+00",12.2,17.2,,29.2,130,-512,1,1031.85,31,347.6
"2022-02-20 17:49:57+00",11.0,14.0,,30,-125,-467,-8,1031.47,32,345.7
"2022-02-20 17:54:57+00",12.3,15.3,,29.7,61,-503,-1,1031.25,31.6,340.7
"2022-02-20 18:04:57+00",13.3,16.3,,29.6,45,-555,5,1031.06,31.4,333.2
"2022-02-20 18:09:57+00",14.7,17.7,,29.9,50,-651,-29,1030.93,31.7,331.7
"2022-02-20 18:14:57+00",12.9,15.9,,29.5,86,-560,-2,1030.89,31.4,327.2
"2022-02-20 18:19:57+00",12.8,15.8,,29.7,59,-525,-18,1030.64,31.3,324.2
"2022-02-20 18:24:57+00",10.2,14.2,,29.8,-50,-432,8,1030.58,31.2,319.5
"2022-02-20 18:29:57+00",15.4,19.4,,29.5,121,-671,-7,1030.52,31.3,314.5
"2022-02-20 18:34:57+00",14.3,19.3,,29.8,13,-576,-4,1030.63,31.2,313.1
"2022-02-20 18:39:57+00",15.4,19.4,,30,-22,-659,-13,1030.52,31.3,308.1
"2022-02-20 18:44:57+00",12.7,19.7,,30.3,-16,-564,-3,1030.58,31.6,302.1
"2022-02-20 18:49:57+00",16.1,19.1,,30.2,75,-698,-19,1030.49,31.5,299.4
"2022-02-20 18:54:57+00",13.1,19.1,,31,-108,-572,28,1030.3,32.1,294.5
"2022-02-20 18:59:57+00",14.6,20.6,,31.2,-150,-589,27,1030.12,32.7,288
"2022-02-20 19:04:57+00",20.6,23.6,,30.8,-228,-859,-28,1030.07,32.5,281.3
"2022-02-20 19:09:57+00",18.5,20.5,,30.7,-102,-790,-37,1030.07,32.2,278.4
"2022-02-20 19:14:57+00",17.0,21.0,,,-341,-683,-12,1029.85,32.8,273.6
"2022-02-20 19:19:57+00",15.7,21.7,,31,-130,-649,-4,1029.73,32.6,269.3
"2022-02-20 19:24:57+00",15.0,20.0,,31.3,-122,-634,22,1029.67,32.8,263.2
"2022-02-20 19:29:57+00",18.1,22.1,,31,-378,-712,11,1029.58,32.6,258.4
"2022-02-20 19:34:57+00",15.4,20.4,,31.3,-194,-643,15,1029.45,32.9,254.5
"2022-02-20 19:39:57+00",17.6,20.6,,31.2,-333,-712,16,1029.48,32.8,247.7
"2022-02-20 19:44:57+00",18.1,22.1,,31.1,-375,-735,8,1029.39,32.6,243.5
"2022-02-20 19:49:57+00",16.2,19.2,,31.2,-185,-693,-3,1029.37,32.8,237.1
"2022-02-20 19:54:57+00",17.3,21.3,,31.4,-180,-713,-13,1029.25,32.8,231.6
"2022-02-20 20:04:57+00",17.3,23.3,,32,-217,-713,-1,1029.06,33.3,220.1
"2022-02-20 20:09:57+00",14.2,20.2,,32,-145,-604,25,1028.96,33.1,215.3
"2022-02-20 20:14:57+00",20.1,24.1,,31.7,-276,-829,7,1029.02,33,209.4
"2022-02-20 20:19:57+00",17.2,22.2,,,-168,-730,-23,1028.85,32.9,204.2
"2022-02-20 20:24:57+00",14.4,19.4,,32.3,-167,-619,2,1028.94,33.4,198.1
"2022-02-20 20:29:57+00",12.4,17.4,,32.6,-80,-504,6,1028.97,33.7,190.3
"2022-02-20 20:34:57+00",18.5,23.5,,32.3,-237,-750,-13,1028.78,33.4,184.3
"2022-02-20 20:39:57+00",15.4,21.4,,,-118,-677,19,1028.89,33.6,176.9
"2022-02-20 20:44:57+00",18.4,23.4,,32.2,-238,-766,3,1028.81,33.4,169.4
"2022-02-20 20:49:57+00",18.5,23.5,,32.4,-152,-814,-18,1028.9,33.2,161.7
"2022-02-20 20:54:57+00",18.5,22.5,,32.1,-213,-774,4,1028.75,33.1,154.8
"2022-02-20 20:59:57+00",17.7,20.7,,32,-297,-737,2,1028.92,33.1,145.6
"2022-02-20 21:04:57+00",16.8,21.8,,32.3,-201,-700,-6,1029.07,33.2,133.8
"2022-02-20 21:09:57+00",16.0,21.0,,,-252,-665,5,1028.98,33.1,125.2
"2022-02-20 21:14:57+00",16.9,20.9,,32.1,-204,-707,-25,1029.11,33.1,115.4
"2022-02-20 21:19:57+00",15.8,18.8,,32.2,-226,-653,11,1028.99,33,104.7
"2022-02-20 21:24:57+00",16.0,20.0,,32.2,-203,-658,18,1028.84,33,94.3
"2022-02-20 21:29:57+00",16.1,18.1,,32.2,-264,-655,0,1028.72,33.1,85.1
"2022-02-20 21:34:57+00",17.4,22.4,,,-141,-750,-23,1028.72,33,73.2
"2022-02-20 21:39:57+00",15.9,19.9,,32.4,-195,-661,-10,1028.66,33,64
"2022-02-20 21:44:57+00",15.6,18.6,,32.6,-308,-628,-1,1028.61,33.1,53.9
"2022-02-20 21:49:57+00",13.1,16.1,,32.7,-150,-553,0,1028.59,33.1,41.8
"2022-02-20 21:54:57+00",16.5,19.5,,,-209,-688,5,1028.55,32.9,2.6
"2022-02-20 22:04:57+00",17.3,20.3,,32.7,-285,-717,11,1028.57,32.8,0
"2022-02-20 22:09:57+00",15.8,18.8,,32.6,-294,-630,-8,1028.58,32.7,0
"2022-02-20 22:14:57+00",16.4,19.4,,32.6,-318,-652,8,1028.48,32.5,0
"2022-02-20 22:19:57+00",19.6,22.6,,32.5,-341,-796,-2,1028.41,32.4,0
"2022-02-20 22:24:57+00",16.1,18.1,,32.4,-286,-663,-2,1028.44,32.2,0
"2022-02-20 22:29:57+00",18.6,21.6,,32.4,-310,-764,-2,1028.47,32.1,0
"2022-02-20 22:34:57+00",17.6,19.6,,32.2,-317,-727,-9,1028.43,31.9,0
"2022-02-20 22:39:57+00",12.7,15.7,,,-198,-521,6,1028.33,31.7,0
"2022-02-20 22:44:57+00",15.1,18.1,,31.9,-231,-620,4,1028.26,31.5,0
"2022-02-20 22:49:57+00",15.2,19.2,,32,-294,-603,9,1028.23,31.4,0
"2022-02-20 22:54:57+00",15.2,18.2,,31.9,-218,-630,13,1028.24,31.4,0
"2022-02-20 23:04:57+00",12.0,14.0,,31.9,-197,-498,15,1028.11,31.3,0
"2022-02-20 23:09:57+00",12.9,14.9,,,-181,-530,1,1028.13,31.3,0
"2022-02-20 23:14:57+00",14.3,17.3,,32.2,-222,-598,-1,1028.02,31.4,0
"2022-02-20 23:19:57+00",14.3,17.3,,,-212,-596,7,1028.07,31.6,0
"2022-02-20 23:24:57+00",13.7,15.7,,,-212,-567,8,1028.05,31.7,0
"2022-02-20 23:29:57+00",12.8,14.8,,,-196,-531,3,1028.03,31.8,0
"2022-02-20 23:34:57+00",12.7,14.7,,,-191,-518,1,1027.95,31.8,0
"2022-02-20 23:39:57+00",14.9,17.9,,32.8,-204,-613,0,1028.02,32,0
"2022-02-20 23:44:57+00",12.5,15.5,,,-152,-515,-7,1027.89,32.1,0
"2022-02-20 23:49:57+00",13.9,16.9,,,-203,-576,3,1027.92,32,0
"2022-02-20 23:54:57+00",15.8,19.8,,33.1,-236,-647,-1,1027.92,32.2,0
